CPA888 ZSJN-ZGHA

Flight info

Callsign CPA888
Flight time N/A
Altitude 32100
Route VHHH SID BEKOL A461 MEXON STAR ZGHA
Aircraft A21N/M-CES/L

Departure

Time N/A
Airport Jinan Yaoqiang International Airport (ZSJN)

Arrival

Time 2026-05-09 13:10
Airport Changsha Huanghua International Airport (ZGHA)
Time Latitude Longitude Altitude Speed Heading
2026-05-09 11:37 22.31420 113.92934 34 ft 0 kts 161°
2026-05-09 11:40 22.31433 113.92928 34 ft 2 kts 161°
2026-05-09 11:40 22.31448 113.92923 34 ft 2 kts 161°
2026-05-09 11:40 22.31462 113.92918 34 ft 2 kts 161°
2026-05-09 11:41 22.31482 113.92910 34 ft 2 kts 161°
2026-05-09 11:41 22.31497 113.92907 34 ft 2 kts 185°
2026-05-09 11:41 22.31512 113.92910 34 ft 2 kts 205°
2026-05-09 11:41 22.31525 113.92920 34 ft 2 kts 228°
2026-05-09 11:42 22.31533 113.92934 34 ft 2 kts 250°
2026-05-09 11:42 22.31537 113.92949 34 ft 2 kts 251°
2026-05-09 11:42 22.31542 113.92964 34 ft 2 kts 250°
2026-05-09 11:42 22.31547 113.92979 34 ft 2 kts 251°
2026-05-09 11:43 22.31552 113.92995 34 ft 2 kts 250°
2026-05-09 11:43 22.31557 113.93010 34 ft 2 kts 251°
2026-05-09 11:43 22.31562 113.93025 34 ft 2 kts 251°
2026-05-09 11:43 22.31563 113.93029 34 ft 0 kts 251°
2026-05-09 11:46 22.31561 113.93023 34 ft 1 kts 251°
2026-05-09 11:46 22.31551 113.92984 34 ft 4 kts 262°
2026-05-09 11:46 22.31626 113.92909 34 ft 8 kts 341°
2026-05-09 11:46 22.31685 113.92887 34 ft 9 kts 341°
2026-05-09 11:47 22.31752 113.92863 34 ft 10 kts 341°
2026-05-09 11:47 22.31901 113.92727 34 ft 13 kts 281°
2026-05-09 11:47 22.31920 113.92617 34 ft 14 kts 280°
2026-05-09 11:47 22.31930 113.92445 34 ft 15 kts 265°
2026-05-09 11:48 22.31884 113.92256 34 ft 17 kts 250°
2026-05-09 11:48 22.31834 113.92097 34 ft 17 kts 251°
2026-05-09 11:48 22.31794 113.91970 34 ft 18 kts 250°
2026-05-09 11:48 22.31750 113.91839 34 ft 18 kts 250°
2026-05-09 11:49 22.31704 113.91706 34 ft 19 kts 249°
2026-05-09 11:49 22.31651 113.91538 34 ft 19 kts 251°
2026-05-09 11:49 22.31636 113.91453 34 ft 5 kts 323°
2026-05-09 11:49 22.31674 113.91429 34 ft 7 kts 336°
2026-05-09 11:50 22.31724 113.91408 34 ft 8 kts 339°
2026-05-09 11:50 22.31767 113.91363 34 ft 9 kts 282°
2026-05-09 11:50 22.31723 113.91183 34 ft 12 kts 251°
2026-05-09 11:50 22.31694 113.91090 34 ft 13 kts 250°
2026-05-09 11:51 22.31688 113.91072 34 ft 0 kts 250°
2026-05-09 11:54 22.31685 113.91065 34 ft 3 kts 250°
2026-05-09 11:55 22.31599 113.90796 34 ft 23 kts 251°
2026-05-09 11:56 22.32529 113.90263 34 ft 15 kts 270°
2026-05-09 11:56 22.32423 113.89894 34 ft 29 kts 251°
2026-05-09 11:56 22.32351 113.89680 34 ft 31 kts 251°
2026-05-09 11:57 22.32276 113.89442 34 ft 35 kts 250°
2026-05-09 11:57 22.32209 113.89248 34 ft 34 kts 250°
2026-05-09 11:58 22.32109 113.88921 34 ft 36 kts 251°
2026-05-09 11:58 22.32040 113.88701 34 ft 22 kts 252°
2026-05-09 11:58 22.31984 113.88535 34 ft 17 kts 250°
2026-05-09 11:58 22.31940 113.88404 34 ft 21 kts 250°
2026-05-09 11:59 22.31887 113.88228 34 ft 25 kts 266°
2026-05-09 11:59 22.31973 113.88140 34 ft 16 kts 337°
2026-05-09 11:59 22.32081 113.88105 34 ft 18 kts
2026-05-09 11:59 22.32155 113.88216 34 ft 17 kts 72°
2026-05-09 12:00 22.32166 113.88253 34 ft 0 kts 71°
2026-05-09 12:07 22.32204 113.88375 34 ft 48 kts 71°
2026-05-09 12:08 22.32397 113.88963 35 ft 116 kts 72°
2026-05-09 12:08 22.32719 113.89980 145 ft 157 kts 71°
2026-05-09 12:08 22.33079 113.91076 768 ft 154 kts 73°
2026-05-09 12:08 22.33437 113.92199 1310 ft 161 kts 72°
2026-05-09 12:09 22.33943 113.93300 962 ft 203 kts 25°
2026-05-09 12:09 22.35301 113.94373 684 ft 256 kts 38°
2026-05-09 12:09 22.36637 113.95302 2435 ft 227 kts 39°
2026-05-09 12:10 22.35430 114.01437 5465 ft 273 kts 138°
2026-05-09 12:10 22.34333 114.03107 6213 ft 280 kts 105°
2026-05-09 12:10 22.34401 114.05560 7325 ft 278 kts 65°
2026-05-09 12:11 22.36462 114.07685 8501 ft 280 kts 17°
2026-05-09 12:11 22.39349 114.08508 9623 ft 290 kts 15°
2026-05-09 12:11 22.41297 114.09171 10363 ft 297 kts 16°
2026-05-09 12:11 22.43304 114.09859 10887 ft 311 kts 15°
2026-05-09 12:12 22.45439 114.10567 11292 ft 329 kts 15°
2026-05-09 12:12 22.47702 114.11301 11667 ft 347 kts 15°
2026-05-09 12:12 22.50086 114.12067 12014 ft 365 kts 15°
2026-05-09 12:12 22.52627 114.12753 12323 ft 382 kts
2026-05-09 12:13 22.55325 114.12634 12647 ft 394 kts 347°
2026-05-09 12:13 22.57919 114.11639 13217 ft 400 kts 334°
2026-05-09 12:13 22.60447 114.10336 13933 ft 403 kts 333°
2026-05-09 12:13 22.62991 114.09001 14585 ft 406 kts 333°
2026-05-09 12:14 22.65536 114.07671 15201 ft 410 kts 333°
2026-05-09 12:14 22.68135 114.06320 15699 ft 417 kts 332°
2026-05-09 12:14 22.70761 114.04961 16176 ft 423 kts 332°
2026-05-09 12:14 22.75655 114.02436 17187 ft 429 kts 332°
2026-05-09 12:15 22.78373 114.01034 17705 ft 433 kts 332°
2026-05-09 12:15 22.81142 113.99603 18203 ft 437 kts 332°
2026-05-09 12:15 22.83907 113.98175 18703 ft 441 kts 332°
2026-05-09 12:15 22.86694 113.96735 19166 ft 445 kts 332°
2026-05-09 12:16 22.89519 113.95277 19645 ft 448 kts 332°
2026-05-09 12:16 22.92319 113.93827 20080 ft 452 kts 332°
2026-05-09 12:16 22.95197 113.92331 20487 ft 456 kts 331°
2026-05-09 12:16 22.98060 113.90839 20883 ft 460 kts 331°
2026-05-09 12:17 23.00964 113.89325 21287 ft 463 kts 331°
2026-05-09 12:17 23.03854 113.87819 21664 ft 466 kts 331°
2026-05-09 12:17 23.06819 113.86275 22019 ft 469 kts 332°
2026-05-09 12:17 23.09800 113.84856 22279 ft 476 kts 334°
2026-05-09 12:18 23.12916 113.83568 22606 ft 480 kts 336°
2026-05-09 12:18 23.16063 113.82336 23151 ft 478 kts 337°
2026-05-09 12:18 23.19181 113.81127 23785 ft 473 kts 337°
2026-05-09 12:18 23.22253 113.79934 24406 ft 468 kts 336°
2026-05-09 12:19 23.25330 113.78732 24990 ft 465 kts 336°
2026-05-09 12:19 23.28350 113.77550 25546 ft 461 kts 336°
2026-05-09 12:19 23.31365 113.76364 26087 ft 457 kts 336°
2026-05-09 12:19 23.34357 113.75185 26581 ft 455 kts 336°
2026-05-09 12:20 23.37347 113.74007 26962 ft 454 kts 336°
2026-05-09 12:20 23.40296 113.72841 27262 ft 455 kts 336°
2026-05-09 12:20 23.43298 113.71655 27551 ft 456 kts 336°
2026-05-09 12:20 23.46286 113.70475 27853 ft 456 kts 336°
2026-05-09 12:21 23.49273 113.69295 27973 ft 461 kts 335°
2026-05-09 12:21 23.52327 113.68073 27972 ft 467 kts 335°
2026-05-09 12:21 23.55397 113.66842 27974 ft 473 kts 335°
2026-05-09 12:21 23.58520 113.65593 27975 ft 478 kts 336°
2026-05-09 12:22 23.61677 113.64336 27986 ft 483 kts 336°
2026-05-09 12:22 23.64850 113.63077 27983 ft 481 kts 336°
2026-05-09 12:22 23.67940 113.61858 27985 ft 461 kts 336°
2026-05-09 12:22 23.70910 113.60683 27982 ft 457 kts 335°
2026-05-09 12:23 23.73934 113.59480 27980 ft 456 kts 335°
2026-05-09 12:23 23.76901 113.58298 27979 ft 457 kts 335°
2026-05-09 12:23 23.79886 113.57111 27980 ft 457 kts 335°
2026-05-09 12:23 23.82897 113.55916 27981 ft 457 kts 336°
2026-05-09 12:24 23.86004 113.55153 27952 ft 467 kts 351°
2026-05-09 12:24 23.89267 113.55061 27976 ft 470 kts 355°
2026-05-09 12:24 23.92570 113.55092 27984 ft 471 kts 356°
2026-05-09 12:24 23.95834 113.55128 27989 ft 470 kts 355°
2026-05-09 12:25 23.99122 113.55145 27992 ft 470 kts 355°
2026-05-09 12:25 24.02383 113.55139 27996 ft 470 kts 355°
2026-05-09 12:25 24.05679 113.55118 27997 ft 470 kts 354°
2026-05-09 12:25 24.08930 113.55089 27998 ft 470 kts 354°
2026-05-09 12:26 24.12222 113.55053 27996 ft 470 kts 354°
2026-05-09 12:26 24.15513 113.55013 27990 ft 470 kts 354°
2026-05-09 12:26 24.18763 113.54973 27989 ft 470 kts 354°
2026-05-09 12:26 24.22062 113.54930 27992 ft 470 kts 354°
2026-05-09 12:27 24.25303 113.54887 27991 ft 470 kts 354°
2026-05-09 12:27 24.28601 113.54843 27989 ft 469 kts 354°
2026-05-09 12:27 24.31879 113.54798 27992 ft 469 kts 354°
2026-05-09 12:27 24.35129 113.54754 27993 ft 469 kts 354°
2026-05-09 12:28 24.38410 113.54709 27996 ft 470 kts 354°
2026-05-09 12:28 24.41717 113.54662 28000 ft 473 kts 354°
2026-05-09 12:28 24.45031 113.54614 28008 ft 474 kts 354°
2026-05-09 12:29 24.51602 113.54525 28015 ft 474 kts 354°
2026-05-09 12:29 24.58207 113.54436 28021 ft 469 kts 354°
2026-05-09 12:30 24.64730 113.54345 28014 ft 468 kts 354°
2026-05-09 12:30 24.67998 113.54301 27909 ft 470 kts 354°
2026-05-09 12:30 24.74520 113.54237 27410 ft 470 kts 354°
2026-05-09 12:31 24.77801 113.54202 27169 ft 471 kts 354°
2026-05-09 12:31 24.84372 113.54121 26676 ft 473 kts 354°
2026-05-09 12:31 24.87694 113.54077 26431 ft 474 kts 354°
2026-05-09 12:32 24.90987 113.54032 26185 ft 475 kts 354°
2026-05-09 12:32 24.94328 113.53987 26027 ft 476 kts 354°
2026-05-09 12:32 24.97623 113.53943 26019 ft 477 kts 354°
2026-05-09 12:32 25.00943 113.53899 26015 ft 477 kts 354°
2026-05-09 12:33 25.04306 113.53853 26016 ft 478 kts 354°
2026-05-09 12:33 25.07643 113.53808 26018 ft 477 kts 354°
2026-05-09 12:33 25.10984 113.53762 26021 ft 476 kts 353°
2026-05-09 12:33 25.14267 113.53719 26019 ft 476 kts 353°
2026-05-09 12:34 25.17616 113.53674 26021 ft 476 kts 353°
2026-05-09 12:34 25.20923 113.53630 26022 ft 476 kts 354°
2026-05-09 12:34 25.24243 113.53584 26024 ft 475 kts 354°
2026-05-09 12:34 25.27572 113.53537 26028 ft 476 kts 353°
2026-05-09 12:35 25.30875 113.53491 26031 ft 475 kts 354°
2026-05-09 12:35 25.34209 113.53445 26034 ft 476 kts 354°
2026-05-09 12:35 25.37499 113.53400 26032 ft 476 kts 354°
2026-05-09 12:35 25.40828 113.53355 26037 ft 475 kts 353°
2026-05-09 12:36 25.44131 113.53310 26038 ft 475 kts 353°
2026-05-09 12:36 25.47445 113.53262 26039 ft 475 kts 353°
2026-05-09 12:36 25.50763 113.53214 26040 ft 477 kts 353°
2026-05-09 12:36 25.54062 113.53157 26038 ft 477 kts 353°
2026-05-09 12:37 25.57411 113.53095 26033 ft 476 kts 353°
2026-05-09 12:37 25.60714 113.53037 26031 ft 476 kts 353°
2026-05-09 12:37 25.64057 113.52982 26030 ft 474 kts 353°
2026-05-09 12:37 25.67349 113.52930 26027 ft 475 kts 353°
2026-05-09 12:38 25.70669 113.52879 26029 ft 476 kts 353°
2026-05-09 12:38 25.73960 113.52832 26027 ft 475 kts 353°
2026-05-09 12:38 25.77276 113.52785 26027 ft 476 kts 353°
2026-05-09 12:38 25.80603 113.52737 26026 ft 476 kts 353°
2026-05-09 12:39 25.83945 113.52691 26027 ft 476 kts 353°
2026-05-09 12:39 25.87223 113.52645 26025 ft 476 kts 353°
2026-05-09 12:39 25.90541 113.52598 26027 ft 475 kts 353°
2026-05-09 12:39 25.93846 113.52550 26024 ft 474 kts 353°
2026-05-09 12:40 25.97159 113.52503 26023 ft 475 kts 353°
2026-05-09 12:40 26.00476 113.52457 26022 ft 475 kts 353°
2026-05-09 12:40 26.03777 113.52411 26024 ft 474 kts 353°
2026-05-09 12:40 26.07094 113.52364 26024 ft 475 kts 353°
2026-05-09 12:41 26.10395 113.52317 26026 ft 476 kts 353°
2026-05-09 12:41 26.13711 113.52271 25901 ft 473 kts 353°
2026-05-09 12:41 26.16954 113.52230 25659 ft 464 kts 353°
2026-05-09 12:41 26.20189 113.52188 25419 ft 463 kts 353°
2026-05-09 12:42 26.23420 113.52141 25175 ft 464 kts 353°
2026-05-09 12:42 26.26668 113.52093 24932 ft 465 kts 352°
2026-05-09 12:42 26.29940 113.52045 24688 ft 466 kts 353°
2026-05-09 12:42 26.33149 113.52000 24448 ft 467 kts 353°
2026-05-09 12:43 26.36423 113.51952 24206 ft 467 kts 353°
2026-05-09 12:43 26.39673 113.51909 23965 ft 468 kts 353°
2026-05-09 12:43 26.42960 113.51861 23726 ft 468 kts 353°
2026-05-09 12:43 26.47388 113.51798 23412 ft 469 kts 353°
2026-05-09 12:44 26.50676 113.51753 23179 ft 470 kts 353°
2026-05-09 12:44 26.53935 113.51706 22949 ft 469 kts 353°
2026-05-09 12:44 26.57185 113.51660 22715 ft 469 kts 353°
2026-05-09 12:44 26.60472 113.51612 22485 ft 469 kts 353°
2026-05-09 12:45 26.63727 113.51566 22258 ft 467 kts 353°
2026-05-09 12:45 26.66974 113.51522 22035 ft 463 kts 353°
2026-05-09 12:45 26.70181 113.51479 21814 ft 460 kts 353°
2026-05-09 12:45 26.74327 113.51419 21517 ft 457 kts 353°
2026-05-09 12:46 26.77476 113.51373 21288 ft 455 kts 353°
2026-05-09 12:46 26.80655 113.51318 21070 ft 453 kts 352°
2026-05-09 12:46 26.84235 113.50950 20812 ft 445 kts 347°
2026-05-09 12:46 26.87304 113.50492 20591 ft 443 kts 346°
2026-05-09 12:47 26.91057 113.49914 20306 ft 441 kts 347°
2026-05-09 12:47 26.94126 113.49454 20081 ft 440 kts 347°
2026-05-09 12:47 26.97156 113.49013 19833 ft 438 kts 347°
2026-05-09 12:47 27.00143 113.48587 19341 ft 436 kts 347°
2026-05-09 12:48 27.03145 113.48161 18831 ft 434 kts 347°
2026-05-09 12:48 27.06133 113.47742 18320 ft 431 kts 348°
2026-05-09 12:48 27.09842 113.47223 17679 ft 429 kts 348°
2026-05-09 12:48 27.12806 113.46811 17142 ft 426 kts 348°
2026-05-09 12:49 27.15728 113.46406 16611 ft 423 kts 348°
2026-05-09 12:49 27.18643 113.46002 16068 ft 420 kts 348°
2026-05-09 12:49 27.21540 113.45601 15530 ft 418 kts 348°
2026-05-09 12:49 27.25077 113.45108 14861 ft 414 kts 349°
2026-05-09 12:50 27.27949 113.44705 14314 ft 411 kts 349°
2026-05-09 12:50 27.30766 113.44311 13774 ft 409 kts 349°
2026-05-09 12:50 27.33598 113.43913 13225 ft 406 kts 350°
2026-05-09 12:50 27.36383 113.43523 12679 ft 404 kts 350°
2026-05-09 12:51 27.39150 113.43138 12133 ft 401 kts 350°
2026-05-09 12:51 27.41938 113.42748 11575 ft 398 kts 350°
2026-05-09 12:51 27.45244 113.42286 10913 ft 394 kts 350°
2026-05-09 12:51 27.47952 113.41928 10437 ft 385 kts 352°
2026-05-09 12:52 27.50561 113.41697 10184 ft 360 kts 354°
2026-05-09 12:52 27.52978 113.41600 9939 ft 337 kts 355°
2026-05-09 12:52 27.55249 113.41553 9813 ft 320 kts 356°
2026-05-09 12:52 27.57484 113.41509 9630 ft 314 kts 356°
2026-05-09 12:53 27.59656 113.41473 9456 ft 311 kts 357°
2026-05-09 12:53 27.61818 113.41476 9287 ft 308 kts
2026-05-09 12:53 27.65668 113.42211 9021 ft 305 kts 15°
2026-05-09 12:53 27.68471 113.43515 8837 ft 303 kts 27°
2026-05-09 12:54 27.70293 113.44728 8631 ft 304 kts 31°
2026-05-09 12:54 27.73170 113.46798 8145 ft 306 kts 31°
2026-05-09 12:54 27.75672 113.48591 7892 ft 303 kts 32°
2026-05-09 12:54 27.78536 113.50629 7852 ft 307 kts 30°
2026-05-09 12:55 27.80417 113.51765 7880 ft 306 kts 22°
2026-05-09 12:55 27.85362 113.53413 7775 ft 303 kts
2026-05-09 12:55 27.88587 113.53731 7424 ft 299 kts
2026-05-09 12:55 27.90671 113.53879 7154 ft 297 kts
2026-05-09 12:56 27.93283 113.54082 6814 ft 294 kts
2026-05-09 12:56 27.95896 113.54301 6473 ft 292 kts
2026-05-09 12:56 28.00189 113.54681 6016 ft 288 kts
2026-05-09 12:56 28.02176 113.54859 6005 ft 279 kts
2026-05-09 12:57 28.04087 113.55030 5998 ft 274 kts
2026-05-09 12:57 28.06003 113.55199 5988 ft 274 kts
2026-05-09 12:57 28.07894 113.55367 5848 ft 270 kts
2026-05-09 12:57 28.09740 113.55532 5710 ft 260 kts
2026-05-09 12:58 28.11546 113.55682 5585 ft 258 kts
2026-05-09 12:58 28.15682 113.55962 5297 ft 258 kts
2026-05-09 12:58 28.18543 113.56158 5099 ft 258 kts
2026-05-09 12:58 28.20757 113.56310 4948 ft 258 kts
2026-05-09 12:59 28.22546 113.56434 4828 ft 257 kts
2026-05-09 12:59 28.24791 113.56587 4565 ft 249 kts
2026-05-09 12:59 28.27622 113.56784 4321 ft 231 kts
2026-05-09 12:59 28.29954 113.56947 4283 ft 224 kts
2026-05-09 13:00 28.31854 113.57079 4120 ft 217 kts
2026-05-09 13:00 28.33589 113.57198 4023 ft 206 kts
2026-05-09 13:00 28.35406 113.57324 4010 ft 209 kts
2026-05-09 13:00 28.36850 113.57113 3903 ft 210 kts 341°
2026-05-09 13:01 28.38137 113.56304 3804 ft 210 kts 320°
2026-05-09 13:01 28.39247 113.54658 3725 ft 208 kts 294°
2026-05-09 13:01 28.39681 113.51975 3658 ft 206 kts 272°
2026-05-09 13:01 28.39741 113.50352 3584 ft 207 kts 272°
2026-05-09 13:02 28.39799 113.48739 3457 ft 206 kts 272°
2026-05-09 13:02 28.39883 113.47097 3333 ft 206 kts 274°
2026-05-09 13:02 28.40101 113.44445 3162 ft 191 kts 275°
2026-05-09 13:02 28.40271 113.42429 2989 ft 182 kts 275°
2026-05-09 13:03 28.40388 113.41068 2971 ft 170 kts 275°
2026-05-09 13:03 28.40503 113.39722 2984 ft 167 kts 275°
2026-05-09 13:03 28.40665 113.37857 2981 ft 162 kts 275°
2026-05-09 13:03 28.40777 113.36581 2984 ft 161 kts 275°
2026-05-09 13:04 28.40883 113.35319 2985 ft 160 kts 274°
2026-05-09 13:04 28.40942 113.34054 2985 ft 159 kts 270°
2026-05-09 13:04 28.40802 113.30060 2988 ft 162 kts 265°
2026-05-09 13:04 28.40785 113.29694 2991 ft 160 kts 265°
2026-05-09 13:05 28.40727 113.28443 2976 ft 155 kts 265°
2026-05-09 13:05 28.40659 113.26937 2981 ft 154 kts 265°
2026-05-09 13:05 28.40535 113.24213 2854 ft 154 kts 265°
2026-05-09 13:05 28.40431 113.22136 2728 ft 155 kts 260°
2026-05-09 13:06 28.39934 113.21091 2623 ft 151 kts 213°
2026-05-09 13:06 28.38942 113.20811 2587 ft 149 kts 175°
2026-05-09 13:06 28.37907 113.20969 2599 ft 150 kts 170°
2026-05-09 13:06 28.34736 113.21391 2603 ft 150 kts 176°
2026-05-09 13:07 28.33687 113.21470 2601 ft 151 kts 176°
2026-05-09 13:07 28.32638 113.21538 2419 ft 149 kts 177°
2026-05-09 13:07 28.31605 113.21599 2230 ft 149 kts 176°
2026-05-09 13:07 28.30573 113.21659 2035 ft 147 kts 176°
2026-05-09 13:08 28.29556 113.21718 1843 ft 146 kts 176°
2026-05-09 13:08 28.28533 113.21779 1658 ft 146 kts 176°
2026-05-09 13:08 28.27514 113.21840 1469 ft 146 kts 177°
2026-05-09 13:08 28.26500 113.21900 1284 ft 145 kts 176°
2026-05-09 13:09 28.25490 113.21960 1099 ft 146 kts 176°
2026-05-09 13:09 28.24472 113.22023 914 ft 146 kts 178°
2026-05-09 13:09 28.23451 113.22086 724 ft 146 kts 178°
2026-05-09 13:09 28.22436 113.22147 535 ft 145 kts 176°
2026-05-09 13:10 28.21428 113.22211 346 ft 146 kts 178°
2026-05-09 13:10 28.20416 113.22268 240 ft 145 kts 178°
2026-05-09 13:10 28.19479 113.22325 221 ft 109 kts 171°
2026-05-09 13:10 28.19000 113.22353 221 ft 36 kts 186°
2026-05-09 13:11 28.18810 113.22306 221 ft 0 kts 220°